Regional Weather Roundup
Issued by NWS

Home | Current Version | Previous Version | Text Only | Print | Product List | Glossary Off
Versions: 1 2 3 4 5 6 7 8 9 10 11 12 13 14 15 16 17 18 19 20 21 22 23 24 25 26 27

000
ASUS45 KTFX 201610
RWRMT
MONTANA REGIONAL WEATHER ROUNDUP
NATIONAL WEATHER SERVICE GREAT FALLS MT
1000 AM MDT WED SEP 20 2017

NOTE: "FAIR" INDICATES FEW OR NO CLOUDS BELOW 12000 FEET WITH NO
SIGNIFICANT WEATHER AND/OR OBSTRUCTIONS TO VISIBILITY.

MTZ001>007-043-201700-
WEST OF THE DIVIDE

CITY           SKY/WX    TMP DP  RH WIND       PRES   REMARKS
KALISPELL      PTSUNNY   44  40  85 S8        29.59F
MISSOULA       CLOUDY    42  39  89 SE7       29.63F
BUTTE          CLOUDY    40  29  64 NW3       29.66R
MULLAN PASS    FOG       31  29  92 CALM      29.58S VSB 3/4
ANACONDA         N/A     37  34  87 S9        29.65R WCI  31
DEER LODGE       N/A     39  36  87 CALM      29.65F
EUREKA           N/A     45  36  70 CALM      29.58R
HAMILTON         N/A     37  36  93 SE9       29.63F WCI  31
LIBBY            N/A     43  41  93 CALM      29.59F
$$

MTZ008-052>055-201700-
SOUTHWEST MONTANA

CITY           SKY/WX    TMP DP  RH WIND       PRES   REMARKS
BOZEMAN        CLOUDY    48  34  58 SE7       29.65F
DILLON         CLOUDY    45  30  55 SW13      29.66R
W YELLOWSTONE  CLOUDY    36  30  80 SW13G24   29.82R WCI  27
ENNIS          CLOUDY    43  28  56 SE29G37   29.75S
$$

MTZ009-010-012-014-046-048-049-054-201700-
EAST SLOPES AND CENTRAL MONTANA

CITY           SKY/WX    TMP DP  RH WIND       PRES   REMARKS
CUT BANK       PTSUNNY   47  31  53 SW21G30   29.49F
GREAT FALLS    CLOUDY    51  27  39 SW20G30   29.55F
HELENA         CLOUDY    46  34  62 SW8       29.62F
CHOTEAU          N/A     48  28  46 SW23G29   29.52F
RAYNESFORD     PTSUNNY   49  26  40 S10G21    29.56F
$$

MTZ011-013-016-021-045-047-050-051-201700-
NORTH CENTRAL MONTANA

CITY           SKY/WX    TMP DP  RH WIND       PRES   REMARKS
HAVRE          SUNNY     54  31  41 SW26G32   29.50F
LEWISTOWN      CLOUDY    49  26  41 SW17      29.60F
N BAR RANCH      N/A     50  21  32 SW26G32   29.62S
CHINOOK          N/A     55  28  35 SW18G29   29.50F
GEYSER           N/A     50  24  37 W31G37    29.55S
JUDITH GAP     PTSUNNY   46  26  46 SW26G33   29.63F
$$

MTZ017>020-022>027-061-062-201700-
NORTHEAST MONTANA

CITY           SKY/WX    TMP DP  RH WIND       PRES   REMARKS
GLASGOW        SUNNY     56  35  45 SW14      29.56S
JORDAN           N/A     55  33  43 SW17G28   29.60S
SIDNEY         SUNNY     55  40  56 S12       29.64S
WOLF POINT     SUNNY     56  38  50 SW7       29.59F
MALTA          SUNNY     54  34  47 W6        29.54S
PLENTYWOOD       N/A     54  36  50 SW14      29.57S
POPLAR           N/A     54  37  54 S8        29.60S
$$

MTZ028>42-056>058-201700-
SOUTHCENTRAL AND SOUTHEAST MONTANA

CITY           SKY/WX    TMP DP  RH WIND       PRES   REMARKS
BAKER          SUNNY     57  35  43 SW16G25   29.72S
BILLINGS       MOSUNNY   54  33  45 S6        29.67S
LIVINGSTON     SUNNY     50  27  40 S36G48    29.61F
MILES CITY     SUNNY     56  36  47 S12       29.69S
BIG TIMBER     SUNNY     54  25  32 SW22G31   29.67F
LAUREL           N/A     55  32  41 S15       29.68F
$$

REGIONAL REPORTS...DAKOTAS

CITY           SKY/WX    TMP DP  RH WIND       PRES   REMARKS
WILLISTON      SUNNY     54  40  59 SW15      29.61S
MINOT          SUNNY     58  43  57 SW16      29.61S
DICKINSON      SUNNY     57  40  52 SW21      29.70R
BEACH            N/A     55  36  47 W21G29    29.72R
CROSBY           N/A     52  41  66 SW16      29.58R
TIOGA            N/A     52  43  71 SW15G23   29.62S
WATFORD CITY     N/A     55  39  54 SW17G24   29.63S
BISMARCK       SUNNY     59  44  57 SW13      29.72F
GRAND FORKS    MOSUNNY   63  49  60 W13       29.68R
FARGO          SUNNY     62  49  62 W8        29.74R
BUFFALO SD       N/A     56  37  49 SW20      29.70S
RAPID CITY     SUNNY     57  34  41 SE9       29.83S
$$

REGIONAL REPORTS...WYOMING/IDAHO/WASHINGTON

CITY           SKY/WX    TMP DP  RH WIND       PRES   REMARKS
GILLETTE       SUNNY     53  29  39 SW22G29   29.80R
SHERIDAN       LGT RAIN  59  20  22 SW12G25   29.74S
BUFFALO WY     SUNNY     54  23  30 SE13G18   29.80S
CODY           SUNNY     51  26  37 NW10G16   29.78F
IDAHO FALLS    PTSUNNY   52  31  44 S22G29    29.82F
SALMON         CLOUDY    49  35  58 S13G21    29.67F
BOISE          CLOUDY    56  34  43 SE15      29.71F
SPOKANE        CLOUDY    45  41  86 W3        29.61S
$$

REGIONAL REPORTS...ALBERTA

CITY           SKY/WX    TMP DP  RH WIND       PRES   REMARKS
EDMONTON       CLOUDY    41  39  93 N6        29.32
CALGARY        PTSUNNY   43  30  61 N9        29.37R
LETHBRIDGE     MOSUNNY   52  27  37 W30G37    29.40F
MEDICINE HAT   MOSUNNY   52  32  46 SW17G28   29.39F
$$

REGIONAL REPORTS...SASKATCHEWAN

CITY           SKY/WX    TMP DP  RH WIND       PRES   REMARKS
SWIFT CURRENT  SUNNY     52  30  43 W22G28    29.41S
REGINA         MOSUNNY   50  37  62 SW18      29.45F
SASKATOON      MOSUNNY   45  37  76 SW6       29.39S
$$




USA.gov is the U.S. government's official web portal to all federal, state and local government web resources and services.